Total_Precipitation_Accumulation
2.39 2.63 2.70 1.96 1.62 1.54 1.65 1.58 1.51 1.46 1.53 1.57 1.61 1.76 1.79 1.89 2.02 1.99 2.07 2.36 2.53 2.80 3.32 3.47 3.32 3.00 2.63 2.44 2.33 2.11 1.81 1.78 1.84 1.83 1.78 1.78 1.85 2.13 2.56 2.38 2.22 1.66 1.55
1.88 2.16 2.26 1.77 1.43 1.41 1.46 1.44 1.39 1.37 1.39 1.37 1.47 1.70 1.87 2.04 2.25 2.19 2.39 2.71 2.99 3.38 3.37 3.10 2.81 2.46 2.33 2.13 2.00 1.89 1.76 1.82 1.91 1.89 1.78 1.64 1.92 2.28 2.58 2.45 2.42 1.65 1.57
1.40 1.58 1.52 1.54 1.31 1.22 1.26 1.30 1.32 1.29 1.32 1.26 1.37 1.65 1.89 2.20 2.48 2.56 2.77 3.02 3.31 3.31 2.95 2.68 2.26 1.97 1.84 1.67 1.64 1.66 1.71 1.84 1.93 2.10 2.10 1.59 1.53 2.26 2.37 2.24 1.88 1.43 1.42
1.10 1.14 1.07 1.24 1.21 1.16 1.15 1.11 1.13 1.17 1.21 1.27 1.38 1.63 1.87 2.12 2.45 2.60 2.80 2.98 3.06 2.85 2.67 2.28 1.92 1.70 1.53 1.37 1.35 1.40 1.53 1.75 2.03 2.40 2.38 1.82 1.21 1.74 2.08 1.91 1.58 1.32 1.27
0.98 0.93 1.10 1.15 1.08 1.07 1.02 1.03 1.06 1.13 1.15 1.23 1.34 1.57 1.83 2.15 2.45 2.59 2.57 2.73 2.60 2.39 2.28 2.10 1.83 1.51 1.34 1.22 1.19 1.29 1.49 1.80 2.04 2.23 2.04 1.95 1.75 1.83 1.87 1.76 1.55 1.46 1.36
0.92 0.94 1.06 1.11 1.03 1.06 1.02 0.96 1.04 1.12 1.20 1.26 1.45 1.68 1.83 2.10 2.23 2.27 2.35 2.57 2.47 2.27 2.11 1.97 1.66 1.35 1.19 1.09 1.11 1.22 1.45 1.82 1.81 1.53 1.54 1.66 1.59 1.72 1.72 1.82 1.67 1.50 1.39
1.10 1.16 1.08 1.13 1.11 1.06 0.97 0.89 1.00 1.11 1.24 1.29 1.45 1.63 1.72 1.86 1.95 2.07 2.25 2.35 2.26 2.10 1.91 1.77 1.53 1.27 1.20 1.19 1.17 1.19 1.47 1.73 1.54 1.33 1.41 1.77 1.59 1.38 1.65 1.88 1.81 1.58 1.39
1.07 1.17 1.16 1.25 1.23 1.17 1.01 0.95 1.07 1.21 1.29 1.39 1.44 1.47 1.55 1.66 1.76 1.96 2.18 2.24 2.08 1.82 1.70 1.65 1.49 1.30 1.21 1.23 1.15 1.19 1.41 1.45 1.18 1.23 1.18 1.36 1.25 1.27 1.57 1.79 1.78 1.63 1.48
1.23 1.20 1.23 1.30 1.20 1.22 1.20 1.09 1.18 1.37 1.46 1.46 1.46 1.45 1.49 1.63 1.80 1.98 2.18 2.27 2.03 1.73 1.63 1.56 1.45 1.29 1.17 1.20 1.21 1.29 1.49 1.62 1.45 1.47 1.11 1.27 1.23 1.39 1.67 1.83 1.84 1.76 1.70
1.66 1.45 1.38 1.49 1.52 1.35 1.31 1.31 1.42 1.53 1.60 1.67 1.70 1.75 1.85 1.99 2.00 2.16 2.21 2.24 2.02 1.80 1.67 1.57 1.51 1.34 1.25 1.23 1.28 1.50 1.75 1.62 1.24 1.31 1.37 1.22 1.32 1.66 2.02 2.00 2.02 2.02 2.00
2.02 1.80 1.59 1.45 1.48 1.46 1.41 1.53 1.89 1.90 1.80 1.85 2.04 2.13 2.23 2.49 2.55 2.67 2.45 2.38 2.17 2.03 1.97 1.85 1.81 1.68 1.49 1.37 1.50 1.74 1.68 1.47 1.49 1.59 1.56 1.33 1.57 2.00 2.34 2.32 2.29 2.26 2.26
2.19 1.83 1.77 1.65 1.52 1.46 1.36 1.64 2.17 2.00 1.91 2.08 2.34 2.32 2.57 3.03 3.28 2.87 2.91 2.89 2.80 2.72 2.58 2.54 2.55 2.13 1.71 1.73 2.24 2.30 1.62 1.53 1.72 1.79 1.76 1.69 1.99 2.45 2.72 2.71 2.68 2.50 2.46
2.34 1.99 1.90 1.81 1.77 1.78 1.87 1.79 2.02 2.18 2.32 2.42 2.48 2.56 2.85 2.99 3.16 3.27 3.33 3.36 3.44 3.20 2.95 3.15 3.04 2.32 2.29 2.70 2.80 2.49 1.93 1.88 2.05 1.98 2.08 2.13 2.22 2.78 3.27 3.19 3.10 2.84 2.65
2.59 2.27 2.06 1.95 1.97 2.08 2.02 2.03 2.05 2.17 2.29 2.51 2.71 2.70 3.06 3.54 3.66 3.77 3.75 3.54 3.66 3.57 3.71 3.63 3.63 3.09 3.08 2.82 2.70 2.65 2.41 2.47 2.36 2.56 2.99 2.66 2.39 2.76 3.53 3.65 3.54 3.24 2.85
2.76 2.45 2.40 2.13 2.10 2.16 2.36 2.50 2.24 2.56 2.62 2.72 2.99 3.16 3.33 3.71 3.82 3.93 3.90 3.85 3.47 3.52 3.73 4.05 3.84 4.01 3.97 3.48 2.97 2.80 2.76 2.75 2.70 2.82 3.12 3.15 2.93 3.02 3.83 4.34 4.21 3.87 3.38
2.74 2.58 2.54 2.38 2.44 2.53 2.61 2.75 2.84 3.03 3.20 3.14 3.22 3.37 3.52 3.79 4.15 4.22 4.18 4.06 3.60 3.46 3.77 4.14 4.06 4.55 4.44 4.19 3.56 3.18 2.97 2.93 2.88 2.97 3.30 3.51 3.43 3.35 3.83 4.46 4.73 4.67 4.21
2.56 2.66 2.83 2.89 3.13 3.23 3.23 3.24 3.22 3.38 3.45 3.59 3.96 4.07 4.19 4.14 4.33 4.17 4.15 3.95 3.80 3.72 3.89 4.06 4.17 4.55 4.27 4.19 3.99 3.62 3.39 3.16 2.98 3.17 3.55 3.93 3.57 3.46 3.84 4.38 4.81 4.81 4.65
2.63 2.71 2.93 3.04 3.43 3.62 3.71 3.84 3.76 3.76 3.80 4.07 4.34 4.60 4.60 4.41 4.21 4.31 4.04 3.83 3.90 3.83 4.08 4.44 4.46 4.54 4.64 4.53 4.28 3.94 3.71 3.58 3.10 3.14 3.32 3.53 3.77 3.26 3.69 4.40 4.67 4.42 4.52
2.96 3.22 3.57 3.70 3.62 3.71 3.94 4.13 3.93 4.00 4.02 4.04 4.17 4.50 4.45 4.11 3.92 4.35 4.21 4.18 4.10 4.29 4.24 3.90 4.54 4.77 4.78 4.70 4.04 3.95 3.49 3.42 3.33 3.12 3.23 3.30 3.52 3.44 3.47 3.58 4.20 4.04 4.27
3.33 3.73 3.96 4.00 4.22 4.52 4.74 4.67 4.47 4.20 4.07 3.93 4.00 4.23 4.14 4.07 3.95 4.29 4.10 4.09 4.25 4.66 4.74 4.61 4.91 4.82 4.64 4.71 3.93 3.66 3.33 3.00 2.98 2.95 2.75 2.99 3.04 2.73 2.95 3.20 3.63 3.10 3.37
3.44 3.67 3.94 4.33 4.72 4.85 4.69 4.64 4.66 4.53 4.35 3.98 3.83 3.97 3.99 3.76 3.79 4.22 3.93 4.38 4.39 4.58 4.70 4.63 4.86 4.73 4.46 4.53 4.51 3.93 3.25 2.79 2.70 2.51 2.50 2.73 2.66 2.66 2.98 3.45 3.73 3.60 3.18
3.18 3.46 3.86 4.32 4.66 4.59 4.73 4.97 4.99 4.86 4.31 4.00 3.87 3.89 3.76 3.57 3.47 3.60 4.21 4.20 4.31 4.53 4.58 4.53 4.58 4.31 4.00 4.37 4.72 4.58 3.78 3.27 2.77 2.23 2.46 2.50 2.62 2.91 2.91 2.96 3.42 3.80 3.59
3.15 3.58 3.93 4.26 4.40 4.43 4.69 4.87 4.62 4.49 4.08 4.00 3.98 3.88 3.67 3.55 3.47 3.61 3.94 4.07 4.18 4.08 4.32 4.53 4.32 4.23 4.12 4.16 4.40 4.71 4.24 3.55 2.94 2.52 2.36 2.41 2.77 3.04 2.87 2.80 2.78 3.06 3.15
3.12 3.71 4.15 4.18 4.26 4.15 4.33 4.50 4.37 4.06 3.84 3.74 3.73 3.54 3.44 3.33 3.25 3.38 3.60 3.83 3.99 3.89 4.09 3.93 4.02 4.19 4.25 4.04 4.11 4.02 3.98 3.73 3.55 3.07 2.59 2.46 2.70 2.79 2.73 2.49 2.49 2.83 2.98
2.83 3.25 3.69 4.05 4.13 3.97 3.95 4.07 4.22 4.03 3.74 3.51 3.37 3.34 3.32 3.32 3.13 3.11 3.35 3.55 3.68 3.57 3.59 3.81 4.16 4.08 4.01 3.89 3.99 4.00 4.14 3.97 3.65 3.49 3.08 2.80 2.64 2.36 2.42 2.45 2.42 2.51 2.73
2.62 2.99 3.29 3.52 3.52 3.48 3.47 3.53 3.65 3.70 3.66 3.42 3.23 3.29 3.30 3.19 3.07 3.02 3.12 3.42 3.48 3.42 3.40 3.55 3.66 3.70 3.73 3.84 3.82 3.71 3.94 4.00 3.84 3.88 3.46 3.06 2.74 2.23 2.14 2.22 2.33 2.46 2.57